www.pogodaiklimat.ru

Погода и климат >> Архив погоды >> Иран >> Бушир аэропорт


ПОГОДА в Бушир аэропорту

  • Прогноз погоды в Бушир аэропорту
  • Монитор погоды в Бушир аэропорту

АРХИВ ПОГОДЫ в Бушир аэропорту

Время (UTC), дата Ветер
(напр.,м/с)
 
Видим.   Явления Облачность Т
(С)
Тd
(С)
f
(%)
Тe
(С)
Тes
(С)
Комфортность P
(гПа)
Po
(гПа)
Тmin
(С)
Tmax
(С)
R
(мм)
R24
(мм)
S
(см)
12 9.07 З 7 10 км ясно +35.6 +23.9 51 +47 +50 опасность
перегрева
994.5 993.8
15 9.07 СЗ 9 10 км ясно +35.2 +21.2 44 +42 +42 опасность
перегрева
993.4 992.7 +37.2
18 9.07 СЗ 7 10 км ясно +34.5 +20.9 45 +42 +42 опасность
перегрева
994.6 993.9
21 9.07 СЗ 5 10 км ясно +33.0 +23.0 56 +43 +43 опасность
перегрева
994.4 993.7
00 10.07 СЗ 3 10 км ясно +32.6 +23.2 58 +43 +43 опасность
перегрева
993.7 992.9
03 10.07 С 2 10 км ясно +32.7 +21.2 51 +40 +42 очень
душно
993.4 992.6 +32.0
06 10.07 СЗ 4 10 км ясно +34.2 +23.2 53 +45 +55 опасность
перегрева
994.1 993.4
09 10.07 СЗ 5 10 км ясно +35.3 +23.6 51 +46 +58 опасность
перегрева
993.5 992.8
12 10.07 З 5 8000 м мгла ясно +35.7 +24.9 54 +49 +55 опасность
перегрева
993.4 992.7
15 10.07 З 3 10 км ясно +34.4 +22.8 51 +44 +44 опасность
перегрева
992.3 991.5 +36.3
18 10.07 штиль 0 10 км ясно +31.2 +18.7 47 +36 +36 очень
душно
993.6 992.8
21 10.07 штиль 0 10 км ясно +29.2 +20.4 59 +36 +36 очень
душно
993.1 992.3
00 11.07 штиль 0 10 км ясно +28.4 +21.9 68 +37 +37 очень
душно
992.8 992.0
03 11.07 штиль 0 10 км ясно +28.4 +21.9 68 +37 +39 очень
душно
994.4 993.6 +27.8
06 11.07 штиль 0 7000 м мгла ясно +35.0 +21.3 45 +43 +62 опасность
перегрева
995.5 994.8
09 11.07 З 5 6000 м мгла ясно +35.3 +25.5 57 +50 +61 опасность
перегрева
995.7 995.0
12 11.07 З 6 10 км ясно +35.2 +24.2 53 +47 +51 опасность
перегрева
994.6 993.9
15 11.07 ЮЗ 3 10 км ясно +34.6 +23.0 51 +45 +45 опасность
перегрева
994.6 993.8 +36.4
18 11.07 С 3 10 км ясно +35.5 +16.3 32 +38 +38 очень
душно
995.7 995.0
21 11.07 штиль 0 10 км ясно +31.1 +18.1 46 +36 +36 очень
душно
995.3 994.6
00 12.07 штиль 0 10 км ясно +29.8 +22.3 64 +39 +39 очень
душно
994.5 993.7
03 12.07 штиль 0 10 км 3/3 1200 м
[Sc]
+31.0 +23.4 64 +42 +43 опасность
перегрева
995.3 994.6 +28.4
06 12.07 СЗ 3 10 км ясно +34.4 +23.7 54 +46 +58 опасность
перегрева
996.5 995.7
09 12.07 З 4 10 км ясно +35.5 +23.7 51 +47 +61 опасность
перегрева
996.7 995.9
12 12.07 З 5 10 км ясно +36.5 +22.9 46 +46 +52 опасность
перегрева
995.4 994.6
15 12.07 З 5 10 км ясно +35.2 +23.9 52 +47 +47 опасность
перегрева
994.6 993.9 +37.2
18 12.07 штиль 0 10 км ясно +33.6 +23.7 56 +45 +45 опасность
перегрева
995.8 995.1
21 12.07 штиль 0 10 км 1/1 1200 м
[Sc]
+30.7 +18.1 47 +35 +35 очень
душно
995.5 994.8
00 13.07 СЗ 7 10 км ясно +33.7 +21.8 50 +42 +42 опасность
перегрева
995.1 994.4
03 13.07 СЗ 5 10 км 5/5 1200 м
[Sc]
+33.2 +22.0 52 +42 +42 опасность
перегрева
996.4 995.7 +30.0
06 13.07 СЗ 4 10 км 4/4 1350 м
[Sc]
+34.6 +22.7 50 +44 +50 опасность
перегрева
997.7 997.0
09 13.07 З 4 10 км 3/0
[Ac trans]
+35.6 +21.9 45 +44 +56 опасность
перегрева
997.5 996.8
12 13.07 ЮЗ 4 10 км 3/0
[Ac trans]
+35.8 +22.3 46 +45 +51 опасность
перегрева
996.3 995.6
15 13.07 ЮЗ 3 10 км 8/0
[Ac trans]
+34.4 +22.3 49 +43 +43 опасность
перегрева
995.8 995.1 +36.6
18 13.07 ЮЗ 1 10 км 3/0
[Ac trans]
+31.7 +22.9 60 +42 +42 опасность
перегрева
997.0 996.2
21 13.07 ЮЗ 2 10 км 3/0
[Ac trans]
+31.9 +24.7 66 +45 +45 опасность
перегрева
997.1 996.3
00 14.07 СЗ 7 10 км ясно +33.6 +21.0 48 +41 +41 опасность
перегрева
996.9 996.2
03 14.07 С 3 10 км 5/0
[Ac trans]
+32.2 +22.0 55 +41 +42 опасность
перегрева
998.3 997.6 +30.0
06 14.07 СЗ 3 10 км 4/0
[Ac trans]
+34.6 +16.9 35 +38 +47 очень
душно
999.6 998.9
09 14.07 СЗ 6 10 км 6/0
[Ac trans]
+34.8 +20.7 44 +42 +47 опасность
перегрева
999.3 998.6
12 14.07 С 5 10 км 4/0
[Ac trans]
+35.6 +20.3 41 +42 +46 опасность
перегрева
997.9 997.2
15 14.07 З 7 10 км 4/0
[Ac trans]
+33.6 +22.1 51 +42 +42 опасность
перегрева
996.7 996.0 +36.6
18 14.07 штиль 0 10 км ясно +32.0 +22.9 59 +42 +42 опасность
перегрева
998.0 997.3
21 14.07 штиль 0 10 км ясно +29.2 +20.1 58 +36 +36 очень
душно
997.2 996.5
00 15.07 штиль 0 10 км 4/0
[Ac trans]
+28.8 +20.2 60 +35 +35 очень
душно
996.8 996.1
03 15.07 СЗ 7 10 км 4/4 1350 м
[Sc]
+32.4 +20.9 51 +40 +40 очень
душно
996.8 996.1 +27.6
06 15.07 СЗ 5 10 км 4/4 1200 м
[Sc]
+33.0 +21.3 50 +41 +45 опасность
перегрева
997.7 997.0
09 15.07 СЗ 6 10 км 3/3 1200 м
[Sc]
+34.8 +20.3 43 +41 +47 опасность
перегрева
997.1 996.4
12 15.07 СЗ 8 10 км ясно +36.0 +21.2 42 +43 +45 опасность
перегрева
995.6 994.9
15 15.07 З 5 10 км ясно +34.4 +22.3 49 +43 +43 опасность
перегрева
994.6 993.9 +36.4
18 15.07 СЗ 6 10 км 4/0
[Ac trans]
+33.6 +23.0 54 +44 +44 опасность
перегрева
994.8 994.1
21 15.07 С 3 10 км 4/0
[Ac trans]
+34.0 +18.9 41 +39 +39 очень
душно
994.5 993.8
00 16.07 СЗ 5 10 км ясно +32.3 +23.8 61 +44 +44 опасность
перегрева
993.4 992.7
03 16.07 СЗ 7 10 км 6/3 1200 м
[Sc Ci sp]
+32.4 +22.2 55 +41 +42 опасность
перегрева
993.8 993.1 +32.0
06 16.07 СЗ 4 10 км ясно +33.7 +22.1 51 +43 +52 опасность
перегрева
995.1 994.3
09 16.07 З 3 10 км ясно +34.7 +23.0 51 +45 +63 опасность
перегрева
994.8 994.0

 

Местоположение метеостанции Бушир аэропорт (Иран): широта 28.98 долгота 50.83 высота над уровнем моря 19 м.

В архиве по умолчанию представлена погода в Бушир аэропорту за последнюю неделю. Архивные данные за месяц целиком и за предыдущие месяцы, начиная с января 2011 года, Вы можете получить, выбрав интересующий диапазон дат из раскрывающегося списка и нажав кнопку "Ввод!".


*Определитесь, кто Вы:
робот инопланетянин человек

Внимание! Время в таблицах - всемирное. Для получения местного времени необходимо прибавить поправку, которая равна 3.5 ч.

Смотрите также архив погоды в соседних городах и на ближайших метеорологических станциях:

Погода в Бушире (Иран) (4 км)
Погода на Харке (Иран) (59 км)
Погода в Гечсаране (Иран) (161 км)
Погода в Бендер-Дейере (Иран) (167 км)
Погода в Ширазе (Иран) (176 км)
Погода в Ясудже (Иран) (201 км)
Погода в Нувасибе (Кувейт) (210 км)
Погода в Умм-Аль-Марадим (Кувейт) (215 км)
Погода в Омидийе (Иран) (228 км)
Погода в Порту Juluiah (Кувейт) (249 км)

Пояснения к столбцам:

Ветер - указаны скорость ветра в м/с - средняя за 10 мин, порывы в срок и между сроками (в фигурных скобках) и направление, откуда дует ветер: С - северный, СВ - северо-восточный, В - восточный, ЮВ - юго-восточный, Ю - южный, ЮЗ - юго-западный, З - западный, СЗ - северо-западный.
Видимость - горизонтальная дальность видимости в метрах или километрах. При видимости от 1 до 10 км при отсутствии осадков обычно наблюдается дымка, при ухудшении видимости до 1 км и менее - туман. В сухую погоду видимость может ухудшаться дымом, пылью или мглою.
Явления - указаны атмосферные явления, наблюдавшиеся в срок или в последний час перед сроком; фигурными скобками обозначены явления, наблюдавшиеся между сроками (за 1-3 часа до срока); квадратными скобками обозначены град или гололедные отложения с указанием их диаметра в мм.
Облачность - указаны через наклонную черту общая и нижняя облачность в баллах и высота нижней границы облаков в метрах; квадратными скобками обозначены формы облаков: Ci - перистые, Cs - перисто-слоистые, Cc - перисто-кучевые, Ac - высококучевые, As - высокослоистые, Sc - слоисто-кучевые, Ns - слоисто-дождевые, Cu - кучевые, Cb - кучево-дождевые. Подробнее классификацию облаков см. в Атласе облаков (PDF).
T - Температура воздуха - температура, измеренная на высоте 2 м над землей.
Td - Температура точки росы - температура, при понижении до которой содержащийся в воздухе водяной пар достигнет насыщения.
f - Относительная влажность воздуха - влажноcть воздуха, измеренная на высоте 2 м над землей.
Te - Эффективная температура - температура, которую ощущает одетый по сезону человек в тени. Характеристика душности погоды. При расчете учитывается влияние влажности воздуха и скорости ветра на теплоощущения человека.
Tes - Эффективная температура на солнце - температура, которую ощущает человек, с поправкой на солнечный нагрев. Характеристика знойности погоды. Зависит от высоты солнца над горизонтом, облачности и скорости ветра. Ночью, в пасмурную погоду, а также при ветре 12 м/с и более поправка равна нулю.
P - Атмосферное давление - приведенное к уровню моря атмосферное давление.
Po - Атмосферное давление - измеренное на уровне метеостанции атмосферное давление.
Tmin - Минимальная температура - минимум температуры воздуха на высоте 2 м над землей.
Tmax - Максимальная температура - максимум температуры воздуха на высоте 2 м над землей.
R - Количество осадков - Количество выпавших осадков за период времени, мм. При наведении курсора мыши на число - период времени, за который выпало указанное количество осадков.
R24 - Количество осадков - Количество выпавших осадков за 24 часа, мм.
S - Снежный покров - Высота снежного покрова, см. При наведении курсора мыши на число - состояние снежного покрова и степень покрытия местности в баллах.